Volver al catálogo

NAVSTAR 25

USA 80

ActivoNavegaciónMEO
NORAD 21930·PAYLOAD·🇺🇸 United States

Lanzado Apr 10, 1992 desde Cape Canaveral Space Force Station

Loading…

Próximos Pases (próximas 24 horas)

TLE

ActualizadoSource: Space-Track

Época: Sep 14, 2026, 12:40 UTC

1 21930U 92019A   26257.52798870 -.00000065  00000-0  00000-0 0  9996
2 21930  54.8594 302.0879 0030044 347.9496   9.5184  1.87661535243125

Sigue NAVSTAR 25 en tiempo real con AllMySat

Download on the App Store